Regional Weather Roundup
Issued by NWS State College, PA

Current Version | Previous Version | Text Only | Print | Product List | Glossary On
Versions: 1 2 3 4 5 6 7 8 9 10 11 12 13 14 15 16 17 18 19 20 21 22 23 24 25 26 27 28 29 30 31 32 33 34 35 36 37 38 39 40 41 42 43 44 45 46 47 48 49 50
000
ASUS41 KCTP 240610
RWRCTP

REGIONAL WEATHER ROUNDUP
NATIONAL WEATHER SERVICE STATE COLLEGE PA
200 AM EDT WED MAY 24 2017

Note: "fair" indicates few or no clouds below 12,000 feet with no
significant weather and/or obstructions to visibility.

* = STATION THAT DOES NOT REPORT PRECIPITATION /E.G. RAIN...SNOW...ETC/
    THUNDER OR FOG.

PAZ002>004-007>009-013>016-020>023-029>032-240700-
WESTERN PENNSYLVANIA

CITY           SKY/WX    TMP DP  RH WIND       PRES   REMARKS
ERIE           PTCLDY    57  46  66 S6        29.70F
MEADVILLE      PTCLDY    58  47  66 VRB3      29.71S
FRANKLIN*      PTCLDY    55  45  67 CALM      29.73R
NEW CASTLE     MOCLDY    60  51  72 E5        29.71S
BEAVER COUNTY  NOT AVBL
BUTLER*        CLOUDY    59  50  72 SE3       29.72R
PITTSBURGH INT CLOUDY    60  54  80 CALM      29.70S
PITTSBURGH     CLOUDY    59  50  72 E3        29.70S
INDIANA*       NOT AVBL
LATROBE        CLOUDY    57  52  82 SE3       29.72S
WASHINGTON CO* CLOUDY    55  54  94 CALM      29.71F
$$

PAZ004>006-010>012-017>019-024>028-033>037-041-042-045-046-049>053-240700-
CENTRAL PENNSYLVANIA

CITY           SKY/WX    TMP DP  RH WIND       PRES   REMARKS
BRADFORD       CLOUDY    52  46  80 SE3       29.74F
DUBOIS         CLOUDY    55  45  68 E8        29.72F
CLEARFIELD     CLOUDY    56  48  74 NE3       29.75F
JOHNSTOWN      CLOUDY    53  49  86 E7        29.72F
ALTOONA        CLOUDY    57  50  77 CALM      29.74F
STATE COLLEGE  CLOUDY    55  48  76 CALM      29.74F
WILLIAMSPORT   CLOUDY    54  50  86 CALM      29.73F
SELINSGROVE    CLOUDY    53  52  96 CALM      29.75F
FT INDIANTOWN  CLOUDY    56  56 100 CALM      29.75F
CAPITAL CITY   LGT RAIN  60  54  80 SE5       29.75F
HARRISBURG     LGT RAIN  58  54  86 CALM      29.74F
YORK           LGT RAIN  57  57 100 E3        29.75F FOG
$$

PAZ038>040-043-044-047-048-054-055-060>062-067>071-240700-
EASTERN PENNSYLVANIA

CITY           SKY/WX    TMP DP  RH WIND       PRES   REMARKS
SCRANTON       CLOUDY    54  49  83 E5        29.76F
MOUNT POCONO   CLOUDY    49  47  93 CALM      29.77F
ALLENTOWN      CLOUDY    57  52  83 CALM      29.76S
QUAKERTOWN*    CLOUDY    55  55 100 CALM      29.76S
READING        LGT RAIN  57  56  96 CALM      29.74F
LANCASTER      LGT RAIN  59  57  93 CALM      29.75F
COATESVILLE    LGT RAIN  57  54  88 CALM      29.76S
POTTSTOWN      CLOUDY    57  53  86 CALM      29.77S
BLUE BELL      CLOUDY    54  54 100 CALM      29.77R
DOYLESTOWN     LGT RAIN  57  55  93 CALM      29.74F
WILLOW GROVE   NOT AVBL
NORTH PHILA    LGT RAIN  59  52  77 CALM      29.76S
PHILADELPHIA   LGT RAIN  58  52  80 E7        29.75S
$$




USA.gov is the U.S. government's official web portal to all federal, state and local government web resources and services.